Location: Unspecified
(0.0000°N, 0.0000°E)
Time: 03:24:04
(UTC+00:00)

Vanguard 1 - Pass Details

Date: 11 December 2023
Orbit: 653 x 3826 km, 34.3° (Epoch: 22 February)

Event Time Altitude Azimuth Distance (km) Brightness Sun altitude
Rises 18:55:37 0° 319° (NW) 6,129 14.4 -14.3°
Reaches altitude 10° 19:01:46 10° 337° (NNW) 5,700 13.9 -15.7°
Maximum altitude 19:13:13 18° 16° (NNE) 5,790 13.6 -18.3°
Enters shadow 19:20:39 15° 38° (NE) 6,314 13.6 -20.0°
Drops below altitude 10° 19:26:54 10° 53° (NE) 6,915 - -21.4°
Sets 19:35:47 0° 70° (ENE) 7,899 - -23.5°
